D70 Tosa. Observer S. Shimomoto. 0.20-m f/6.3 Schmidt-Cassegrain + CCD.
H36 Sandlot Observatory, Scranton. Observer G. Hug. 0.3-m Schmidt-Cassegrain
+ CCD.
H41 Petit Jean Mountain. Observer P. C. Sherrod. 0.41-m f/3.7
Schmidt-Cassegrain + CCD.
H72 Evelyn L. Egan Observatory, Fort Myers. Observers M. Fauerbach, M. Mon.
0.40-m f/5.3 reflector + CCD.
J97 Alginet. Observer T. Climent G. 0.25-m f/4 Schmidt-Cassegrain + CCD.
Orbital elements:
C/2003 T2 (LINEAR)
Epoch 2003 Nov. 17.0 TT = JDT 2452960.5
T 2003 Nov. 14.03057 TT MPC
q 1.7863912 (2000.0) P Q
z +0.0000440 Peri. 152.23434 +0.47901891 +0.21070698
+/-0.0000244 Node 238.53188 +0.49770845 +0.73444569
e 0.9999215 Incl. 87.53339 +0.72306790 -0.64512952
Residuals in seconds of arc
031013 704 0.2- 0.3+ 031116 704 0.9+ 0.6- 031212 J97 1.6+ 2.0+
031013 704 0.5- 1.1+ 031116 704 0.4+ 0.9- 031212 939 0.9- 0.2+
031013 704 0.3+ 0.3+ 031116 355 0.4+ 0.5- 031212 939 0.2+ 0.3+
031013 704 0.7- 0.1+ 031116 355 0.3- 0.4- 031212 J97 0.4+ 1.4+
031013 704 1.5- 1.0+ 031116 355 0.1+ 0.9- 031212 939 0.0 0.1+
031013 198 0.3- 1.5+ 031116 360 0.0 0.2+ 031213 349 0.1- 0.8+
031013 198 0.1+ 1.1+ 031116 360 0.1+ 0.3+ 031213 349 0.3- 0.9-
031014 198 0.8+ 0.4+ 031117 900 0.1- 1.1- 031213 349 0.1+ 0.9+
031014 198 0.4+ 0.2+ 031117 900 0.2- 0.4- 031213 349 0.6+ 0.7-
031014 651 0.1+ 0.1- 031117 349 0.4+ 0.2+ 031213 D70 0.6- 0.2+
031014 651 0.1- 0.2- 031117 349 0.0 0.4+ 031213 D70 (0.2- 2.4-)
031014 651 0.2+ 0.4- 031117 349 0.2+ 0.0 031213 J87 1.0- 1.4-
031014 651 0.1- 0.2- 031117 349 0.2+ 0.0 031213 J87 0.7- 1.1-
031014 G90 0.3+ 0.3- 031118 458 (2.1- 3.3-) 031213 J87 0.2- 1.2-
031014 G90 0.0 1.0- 031118 458 (3.7- 4.4-) 031213 939 0.4- 0.3-
031014 G90 0.0 0.9- 031118 458 (2.1- 0.7-) 031213 939 0.3- 0.2-
031014 704 0.4- 0.4- 031118 213 0.4- 0.8+ 031213 939 0.7- 0.3-
031014 704 0.3- 1.0+ 031118 213 0.2+ 0.2+ 031214 349 0.3+ 0.5-
031014 704 0.3+ 0.0 031118 213 0.1+ 0.9+ 031214 349 0.1+ 0.3-
031014 926 0.4+ 0.3- 031119 H41 0.3+ 0.2+ 031214 349 0.1- 0.0
031014 926 0.5+ 0.2- 031119 H41 0.4+ 1.1+ 031214 349 0.5- 0.8+
031014 926 0.3+ 0.0 031119 H41 0.1- 0.6+ 031214 360 0.4- 0.6-
031014 704 0.9+ 0.7+ 031119 H41 0.3+ 0.1- 031214 360 0.6- 1.1-
031014 704 0.5- 1.2+ 031119 H41 0.3- 0.1+ 031214 360 0.7- 0.7-
031014 198 0.5+ 0.1- 031119 204 0.5- 0.2+ 031214 D70 (0.5- 2.9-)
031014 198 0.5+ 0.0 031119 204 0.3+ 0.6+ 031214 D70 0.4+ 0.2-
031014 198 0.7+ 0.5+ 031119 204 0.1+ 0.5+ 031214 D70 0.6+ 1.3-
031014 636 0.1- 0.0 031119 204 0.3- 0.4+ 031214 J97 1.9- 1.3-
031014 636 0.1+ 0.4- 031119 204 0.1- 0.8+ 031215 H41 0.3- 0.0
031014 636 0.1+ 0.9- 031120 H41 0.2+ 0.0 031215 H41 0.6+ 1.2-
031014 636 0.3+ 0.3+ 031120 H41 0.6+ 0.3- 031215 H41 0.3+ 0.3-
031015 704 0.1- 0.7+ 031120 H41 0.4- 0.3- 031215 H41 0.2- 1.0-
031015 704 0.0 0.1+ 031120 H41 0.0 0.3+ 031216 945 0.2+ 1.2+
031015 704 1.4+ 1.0+ 031120 H41 0.1+ 0.0 031216 945 0.4+ 0.7+
031015 704 0.1- 1.1+ 031120 104 0.4- 0.4- 031216 945 0.7+ 1.6+
031015 704 0.7- 1.8+ 031120 104 0.4- 0.0 031217 H41 0.7- 0.5-
031015 235 0.9- 1.2- 031120 104 1.2- 0.7- 031217 H41 1.6+ 0.0
031016 704 0.5+ 1.0- 031120 104 0.0 0.0 031217 H41 0.2+ 0.4-
031016 704 0.2- 0.7+ 031121 H41 0.2- 0.6- 031217 H41 0.8- 0.6-
031016 704 (0.2+ 2.3+) 031121 H41 0.2- 0.2+ 031217 H41 0.2- 1.8-
031016 704 0.3- 1.4+ 031121 H41 0.7- 0.6- 031218 704 (1.7+ 2.5+)
031016 704 0.2- 0.8+ 031122 H41 0.5- 0.5- 031218 704 (0.4+ 2.1+)
031016 349 0.5- 0.1- 031122 H41 0.3+ 1.4- 031218 704 (1.7+ 3.1+)
031016 349 0.1- 0.3+ 031122 H41 0.1+ 0.2- 031218 704 (3.3+ 5.6+)
031016 349 0.7- 0.1- 031122 H41 0.5+ 1.8+ 031218 704 (2.9+ 5.1+)
031016 349 0.8- 0.3+ 031122 D70 0.3+ 0.8- 031218 H41 0.5- 1.0+
031017 704 0.2- 0.8+ 031122 D70 0.4- 0.1- 031218 H41 1.5- 0.0
031017 704 0.4- 0.5+ 031122 D70 0.7- 1.2- 031218 H41 (2.4- 0.9-)
031017 704 0.6- 0.2- 031123 340 0.3- 0.2+ 031218 A18 0.9- 0.5-
031017 704 (0.5- 3.1+) 031123 340 0.9+ 0.2- 031218 H72 1.3- 0.2-
031017 704 0.8- 1.0+ 031123 340 0.6- 0.4- 031218 H72 0.2+ 0.6+
031017 372 0.8+ 1.2- Y 031123 900 0.8- 1.0- 031218 H72 1.7+ 0.6+
031018 A18 1.6- 0.7- 031123 900 0.3- 0.2- 031219 A32 0.5+ 1.4+
031018 349 0.2- 0.7- 031124 213 (2.6+ 0.1+) 031219 A32 0.3+ 0.2+
031018 349 0.4- 0.3+ 031124 213 1.0+ 0.8+ 031219 A32 0.1+ 0.2+
031018 349 0.6- 0.8+ 031127 H72 (2.7+ 0.2-) 031219 A32 0.3+ 0.1+
031018 349 0.4+ 0.5+ 031127 H72 1.7+ 1.2+ 031219 H41 0.6- 0.1+
031019 372 0.6- 1.0- Y 031127 H72 0.7+ 1.6+ 031219 H41 0.7- 0.6+
031020 785 1.0+ 0.3+ 031128 A32 0.1- 0.1+ 031219 H41 0.8- 1.0+
031020 785 0.5+ 1.0+ 031128 A32 0.1- 0.3+ 031219 H41 0.1- 0.3+
031023 349 0.4+ 0.2- 031128 A32 0.0 0.2+ 031219 H41 0.9- 1.1+
031023 349 1.4+ 0.2- 031128 A32 0.1+ 0.6+ 031220 H72 1.9- 0.2+
031023 349 0.7+ 0.7- 031129 H41 0.7- 0.2- 031220 H72 0.1+ 1.8-
031023 360 0.2- 0.2- 031129 H41 0.7- 0.3+ 031220 H72 1.7- 1.2-
031023 360 0.2+ 0.5+ 031129 H41 0.6+ 0.4+ 031220 H72 0.6+ 0.3+
031023 360 0.1+ 0.1+ 031129 130 0.7- 0.2- 031220 750 1.2+ 0.2-
031024 A46 1.6+ 0.5+ 031129 130 0.1- 0.2- 031220 750 0.3- 0.4-
031024 A46 1.0+ 0.0 031129 130 0.4- 0.0 031220 750 0.5- 0.7-
031024 A46 0.1+ 0.5- 031129 130 0.1- 0.3- 031221 349 0.1+ 0.3+
031024 A46 0.4- 0.3+ 031129 A46 0.5- 0.5+ 031221 349 0.6+ 0.1+
031024 A46 0.9- 0.7+ 031129 A46 0.2- 0.2+ 031222 333 0.1- 0.8-
031024 A46 1.4- 0.6+ 031129 A46 0.9- 0.8+ 031222 333 0.3+ 0.4-
031028 372 0.3+ 0.7- Y 031129 A46 0.8- 0.0 031222 333 0.4- 0.9-
031029 H41 0.3+ 0.6- 031129 A46 0.3- 0.6+ 031222 A32 0.4+ 0.4+
031029 H41 1.2+ 0.8+ 031129 A46 0.5- 0.0 031222 A32 0.0 0.0
031029 H41 0.1+ 0.6- 031130 H72 0.5+ 0.4+ 031222 A32 0.3- 0.1-
031030 360 0.8+ 0.0 031130 H72 0.1+ 0.9- 031222 A32 0.4- 0.1+
031030 360 0.7+ 0.0 031130 H72 0.1+ 0.3+ 031222 A32 0.2+ 0.7+
031030 360 1.2+ 0.3+ 031130 H72 0.7+ 0.0 031223 704 0.7+ 0.6+
031101 H41 1.2+ 0.8+ 031130 H72 1.4+ 0.6- 031223 704 (1.4+ 2.9+)
031101 H41 1.2+ 0.3- 031130 H41 0.5- 0.8+ 031223 704 (2.1+ 2.7+)
031101 355 0.6- 0.8- 031130 H41 0.3+ 0.6- 031223 704 (1.6+ 4.9+)
031101 355 0.7- 0.2- 031130 H41 0.1+ 1.1- 031223 704 (1.8+ 3.7+)
031101 355 0.1- 0.6- 031130 H41 0.5- 0.6- 031223 D70 (1.1- 2.8+)
031101 442 0.4+ 0.9+ 031201 D70 1.0- 1.2- 031223 D70 (1.9- 2.9+)
031102 442 0.2+ 1.2+ 031204 704 0.9+ 0.3- 031223 367 0.0 1.5-
031102 442 0.4+ 1.0+ 031204 704 (2.6- 2.8-) 031223 367 0.8+ 0.3-
031102 H41 0.8+ 0.6+ 031204 704 1.3+ 1.6+ 031223 367 0.2- 0.2+
031102 H41 0.3+ 0.3- 031204 704 0.8+ 0.3+ 031223 048 (2.5- 0.2+)
031102 H41 0.2+ 1.2+ 031204 704 1.7+ 1.9+ 031223 048 0.4- 0.8-
031102 H41 0.3+ 0.4+ 031204 340 0.2+ 0.9- 031223 048 0.1+ 0.9-
031102 104 (2.6+ 2.2+) 031204 340 0.8+ 0.3+ 031223 048 0.8+ 0.1-
031102 104 (2.7+ 0.3+) 031204 340 0.4+ 0.0 031223 J97 1.3- 0.3+
031102 104 (2.7+ 1.9+) 031204 340 0.6+ 0.2+ 031223 J97 0.1- 0.2-
031102 104 (2.8+ 0.4-) 031206 349 1.2- 1.0- 031223 A46 1.5- 1.7-
031103 H41 0.5+ 0.1- 031206 349 1.2- 1.4- 031223 A46 1.4- 0.2+
031103 H41 1.2+ 0.2+ 031206 213 0.2- 0.4+ 031223 A46 (3.3- 0.4-)
031103 H41 0.3- 0.1+ 031206 213 0.2+ 0.2+ 031223 A46 (2.2- 0.9-)
031103 H41 1.1+ 0.1+ 031206 213 0.9+ 0.3+ 031223 A46 0.7- 0.2+
031104 H41 0.8+ 1.2- 031206 A32 1.3+ 0.4- 031223 A46 0.7+ 0.3-
031104 H41 0.8+ 0.8- 031206 A32 1.3+ 0.4+ 031223 215 1.7- 1.6-
031104 H41 0.8+ 0.1+ 031206 A32 0.9+ 0.1+ 031223 215 (2.3+ 0.4+)
031104 H41 0.8+ 0.2+ 031206 A32 0.8+ 0.7+ 031224 704 0.3+ 0.5+
031104 340 (2.1- 2.0+) 031206 176 0.7- 1.1- 031224 704 (2.3+ 2.7+)
031104 340 0.1+ 1.0+ 031206 176 0.5- 0.8- 031224 704 0.7+ 1.5+
031104 340 (0.8- 2.1+) 031206 176 0.1+ 0.2- 031224 704 0.0 0.6-
031104 340 0.6+ 1.3- 031207 H41 (2.7+ 1.5-) 031224 246 0.3- 0.1+
031104 A46 0.5- 0.4+ 031207 H41 0.2+ 0.9+ 031224 246 0.2- 0.1+
031104 A46 0.4- 0.7- 031207 H41 (0.4+ 6.7+) 031224 246 0.3- 0.2+
031104 A46 0.7- 0.5+ 031207 H41 0.8+ 1.0+ 031224 246 0.3- 0.1+
031104 A46 0.4+ 0.2- 031207 H41 0.8+ 1.8+ 031224 246 0.4- 0.2-
031104 A46 (2.2+ 0.8-) 031207 048 0.3- 1.9- 031224 246 0.1- 0.3+
031104 A46 0.3- 0.4- 031207 048 0.1- 1.0- 031224 246 0.3- 0.0
031106 704 (4.9+ 5.8-) 031207 048 1.0+ 0.3- 031224 213 (1.0+ 2.4-)
031106 704 1.0- 0.4- 031207 048 0.6- 1.2- 031224 213 0.4- 1.5+
031106 704 2.0- 1.8- 031207 048 0.5- 0.9- 031224 213 0.6- 0.1+
031106 704 (2.3- 1.3-) 031207 A18 0.3- 1.6- 031225 J97 (3.3+ 1.6-)
031108 H41 1.2+ 0.1+ 031207 A18 0.4- 0.5- 031225 J97 (4.1+ 2.9+)
031108 H41 (2.9+ 2.4+) 031209 A46 0.9+ 1.0- 031225 J97 (0.8- 3.2-)
031108 H41 0.3+ 1.3+ 031209 A46 (0.2- 2.6-) 031225 939 0.5+ 0.1-
031108 H41 0.7+ 0.7+ 031209 A46 0.1- 0.8- 031225 939 0.1+ 0.1+
031108 H41 0.8+ 0.8+ 031209 A46 0.9- 0.9- 031225 939 0.7- 1.0-
031110 785 0.9+ 1.6- 031209 A46 1.1- 0.4- 031227 704 0.1- 0.1+
031110 785 0.6- 0.6+ 031209 A46 0.6- 0.1+ 031227 704 2.0+ 1.0+
031110 104 0.3- 0.8- 031209 A32 1.7+ 0.3+ 031227 704 1.1+ 0.8+
031110 104 0.2- 0.3- 031209 A32 1.1+ 0.6+ 031227 704 (2.2+ 2.2+)
031110 104 0.1- 0.0 031209 A32 0.7+ 0.6+ 031227 704 1.6+ 1.3+
031110 104 0.3- 0.2+ 031209 A32 0.5+ 0.3+ 031227 A32 0.7- 0.6+
031111 945 0.1+ 1.1- 031210 900 1.0- 0.8+ 031227 A32 0.6- 0.2-
031111 945 (1.9+ 3.4-) 031210 900 (0.6+ 3.3+) 031227 A32 2.0+ 0.3+
031111 945 0.7- 0.8- 031210 213 0.1- 0.4- 031228 704 0.2+ 1.2+
031112 H41 (1.8+ 2.6+) 031210 213 0.0 0.2+ 031228 704 (1.4+ 2.4+)
031112 H41 (1.7+ 2.3+) 031210 213 0.2- 0.5- 031228 704 (1.3+ 2.8+)
031112 H41 1.2+ 1.1+ 031210 A32 0.0 0.0 031228 704 (1.4+ 2.7+)
031113 340 0.8+ 0.7+ 031210 A32 0.8+ 0.7+ 031228 704 (2.1+ 2.8+)
031113 340 0.1+ 0.7+ 031210 A32 0.7- 0.4+ 031228 D70 0.8+ 1.0-
031113 340 0.3+ 0.2- 031210 A32 0.2+ 0.3- 031229 704 0.7- 0.2-
031113 340 0.8- 0.6- 031212 850 (0.1+ 3.0-) 031229 704 0.6- 0.6+
031113 349 0.0 0.7- 031212 850 0.7+ 0.2+ 031229 704 0.1+ 0.7+
031113 349 0.4+ 0.6- 031212 850 0.4+ 0.4- 031229 704 1.0+ 0.4+
031113 349 0.1- 0.1+ 031212 H41 0.7+ 1.9+ 031229 704 1.0+ 0.2+
031113 349 0.3- 0.5- 031212 H41 1.1- 1.3+ 031229 704 0.3+ 1.5+
031114 213 0.3+ 1.4- 031212 H41 1.2- 1.1+ 031229 704 0.5+ 0.8+
031114 213 0.1+ 0.7+ 031212 H41 1.9- 0.7+ 031229 704 (0.6+ 2.5+)
031114 213 0.8+ 0.6+ 031212 349 0.4+ 0.7+ 031229 704 (1.1+ 3.1+)
